Time[GMT],air_temperature[C](-3m),wind_speed[m/s](-4m),wind_gust[m/s](-4m),wind_direction[degrees](-4m),visibility[m](-3m)
2003-09-25 16:00,13.8,4.8,5.5,172,2771
2003-09-25 17:00,13.8,4.9,5.6,174,2833
2003-09-25 18:00,13.9,4.9,5.7,174,2819
2003-09-25 19:00,14.2,5.0,5.7,173,2723
2003-09-25 20:00,14.2,4.9,5.7,172,2782
2003-09-25 21:00,14.3,5.7,6.9,166,2854
2003-09-25 22:00,13.9,5.2,6.1,162,2716
2003-09-25 23:00,14.1,6.3,7.4,166,2696
2003-09-26 00:00,14.2,6.3,7.3,175,2700
2003-09-26 01:00,14.1,6.2,7.1,173,2671
2003-09-26 02:00,14.2,6.1,6.7,180,2667
2003-09-26 03:00,13.9,4.9,6.4,191,2603
2003-09-26 04:00,14.0,5.4,6.4,195,2688
2003-09-26 05:00,14.2,6.0,7.1,205,2647
2003-09-26 06:00,13.8,3.5,5.0,189,2476
2003-09-26 07:00,14.0,1.4,2.7,271,2447
2003-09-26 08:00,13.3,1.0,1.5,181,2158
2003-09-26 09:00,13.4,1.6,2.4,359,2519
2003-09-26 10:00,13.1,2.8,3.4, 35,2852
2003-09-26 11:00,13.0,3.0,3.5, 42,2897
2003-09-26 12:00,12.9,2.5,3.1, 71,2839
2003-09-26 13:00,12.5,2.5,2.9, 68, 215
2003-09-26 14:00,12.8,1.9,2.7, 50, 602
2003-09-26 15:00,13.0,2.1,2.6, 31, 230
2003-09-26 16:00,13.1,1.7,2.0, 88, 328
2003-09-26 17:00,13.6,1.6,1.8, 63,2337
2003-09-26 18:00,13.4,1.8,2.2, 66,2044
2003-09-26 19:00,13.7,3.1,3.8, 88,2089
2003-09-26 20:00,13.4,3.2,3.7, 85,2146
2003-09-26 21:00,13.3,2.4,3.1, 73,2253
2003-09-26 22:00,13.0,2.8,3.1, 70,2602
2003-09-26 23:00,13.5,2.8,3.1, 76,2671
2003-09-27 00:00,12.9,2.3,2.6, 77,1359
2003-09-27 01:00,12.8,1.3,1.8, 74, 441
2003-09-27 02:00,13.1,1.3,1.9,107, 307
2003-09-27 03:00,13.6,0.8,1.1, 96, 235
2003-09-27 04:00,13.9,0.4,0.6, 55, 355
2003-09-27 05:00,13.2,0.6,1.1, 75, 224
2003-09-27 06:00,13.2,1.3,1.6,  3, 197
2003-09-27 07:00,13.0,1.3,1.6, 37, 203
2003-09-27 08:00,13.0,2.1,2.5, 26, 213
2003-09-27 09:00,12.9,2.7,3.1, 29, 229
2003-09-27 10:00,12.9,3.3,4.0, 99, 347
2003-09-27 11:00,13.3,1.0,2.4, 38, 346
2003-09-27 12:00,13.5,1.4,1.8, 84, 236
2003-09-27 13:00,13.4,2.7,3.3, 97, 171
2003-09-27 14:00,13.9,3.1,3.5,126, 355
2003-09-27 15:00,14.5,3.9,4.4,132, 271
2003-09-27 16:00,14.3,2.1,2.7,116,2214
2003-09-27 17:00,14.8,2.6,2.9,115,2925
2003-09-27 18:00,14.6,3.0,3.4,111,2783
2003-09-27 19:00,14.0,3.5,3.9, 98,2473
2003-09-27 20:00,14.1,4.0,4.4,106,2584
2003-09-27 21:00,14.4,3.4,4.0,111,2677
2003-09-27 22:00,13.7,3.4,3.8,107,2527
2003-09-27 23:00,13.7,3.1,3.5,103,2631
2003-09-28 00:00,13.8,3.7,4.1,109,2509
2003-09-28 01:00,14.3,4.8,5.6,121, 706
2003-09-28 02:00,14.1,4.1,4.6,116, 461
2003-09-28 03:00,13.5,3.2,3.5, 84,1299
2003-09-28 04:00,13.1,2.7,3.1, 72, 411
2003-09-28 05:00,13.7,3.1,3.5, 97, 511
2003-09-28 06:00,13.5,2.4,2.9,106, 372
2003-09-28 07:00,13.8,4.2,4.9,117, 302
2003-09-28 08:00,13.3,2.5,3.6,102, 801
2003-09-28 09:00,14.4,6.1,6.9,130,2165
2003-09-28 10:00,14.8,7.9,9.3,129,2081
2003-09-28 11:00,14.9,7.9,8.8,129,1890
2003-09-28 12:00,14.8,8.5,9.5,128,2104
2003-09-28 13:00,15.0,8.1,9.2,127,1901
2003-09-28 14:00,14.5,7.6,9.1,128,1872
2003-09-28 15:00,14.6,7.4,8.6,132,2042
2003-09-28 16:00,14.5,6.7,7.5,130,1908
2003-09-28 17:00,14.5,6.5,7.8,129,2156
2003-09-28 18:00,14.6,6.5,7.6,128,2204
2003-09-28 19:00,14.8,6.6,7.6,126,2158
2003-09-28 20:00,14.6,5.9,7.5,126,2027
2003-09-28 21:00,15.6,8.1,11.1,119,2063
2003-09-28 22:00,14.6,4.4,5.8,136,1786
2003-09-28 23:00,15.0,4.0,5.9,144,2158
2003-09-29 00:00,14.4,4.0,5.4,117,1813
2003-09-29 01:00,14.8,4.5,5.7,129,1203
2003-09-29 02:00,13.8,1.6,3.0,117, 634
2003-09-29 03:00,13.8,1.1,2.4,308, 425
2003-09-29 04:00,13.2,1.5,2.6,262, 799
2003-09-29 05:00,14.3,1.1,2.3,251, 511
2003-09-29 06:00,13.9,3.2,4.0,201, 275
2003-09-29 07:00,13.7,4.4,5.9,215, 179
2003-09-29 08:00,13.8,2.8,3.6,216, 227
2003-09-29 09:00,13.1,1.7,2.6,210, 304
2003-09-29 10:00,12.9,2.7,3.6,180, 440
2003-09-29 11:00,13.8,5.1,6.2,194, 423
2003-09-29 12:00,13.6,6.1,7.1,203, 440
2003-09-29 13:00,13.3,6.0,6.9,219, 791
2003-09-29 14:00,13.1,6.4,7.5,208, 459
2003-09-29 15:00,13.1,4.8,5.5,223,2804
2003-09-29 16:00,12.9,2.9,4.0,225,2848
2003-09-29 17:00,12.7,2.5,3.2,179,2872
2003-09-29 18:00,13.1,2.8,3.5,197,2727
2003-09-29 19:00,12.8,2.7,3.3,198,2811
2003-09-29 20:00,12.9,2.2,2.9,187,2827
2003-09-29 21:00,12.7,2.0,2.6,204,2846
2003-09-29 22:00,12.8,2.0,2.5,188,2858
2003-09-29 23:00,12.5,2.5,3.1,231,2895
2003-09-30 00:00,12.4,2.5,3.3,226,2870
2003-09-30 01:00,12.7,4.8,5.8,237,2774
2003-09-30 02:00,13.3,6.8,8.2,251,2781
2003-09-30 03:00,13.1,5.0,6.1,255,2769
2003-09-30 04:00,12.9,5.1,6.1,258,2816
2003-09-30 05:00,12.6,4.1,4.8,259,2739
2003-09-30 06:00,12.7,3.0,3.8,273,2846
2003-09-30 07:00,12.2,1.4,1.8,223,2788
2003-09-30 08:00,12.2,3.9,4.5,250,2712
2003-09-30 09:00,12.4,4.3,5.5,260,2820
2003-09-30 10:00,12.2,4.3,5.4,268,2842
2003-09-30 11:00,12.3,3.6,4.4,253, 561
2003-09-30 12:00,12.5,2.4,3.7,276,2607
2003-09-30 13:00,12.5,2.2,2.5,254,2854
2003-09-30 14:00,12.7,2.3,2.7,241,2904
2003-09-30 15:00,12.9,2.5,3.1,221,2926
2003-09-30 16:00,12.7,3.5,4.2,233,2889
2003-09-30 17:00,12.9,3.6,4.2,219,2932
2003-09-30 18:00,12.9,3.7,4.5,223,2906
2003-09-30 19:00,12.9,4.3,5.4,230,2921
2003-09-30 20:00,13.1,4.3,5.3,232,2927
2003-09-30 21:00,13.1,4.2,5.2,226,2936
2003-09-30 22:00,12.7,3.7,4.7,221,2948
2003-09-30 23:00,12.6,4.0,4.9,226,2948
2003-10-01 14:00,12.8,1.9,2.6,172,2869
2003-10-01 17:00,14.7,0.8,3.7,258,2961
2003-10-01 18:00,14.3,3.8,5.0,228,2961
2003-10-01 19:00,13.0,4.1,5.2,285,2961
2003-10-01 20:00,13.1,0.6,2.6,264,2961
2003-10-02 00:00,12.5,2.2,2.7,170,2953
2003-10-02 01:00,12.4,2.2,2.7,172,2951
2003-10-02 02:00,12.2,1.2,2.0,182,2945
2003-10-02 03:00,12.0,0.4,0.9,305,2939
2003-10-02 04:00,12.2,0.9,1.2,201,2947
2003-10-02 05:00,12.7,3.4,4.0,176,2945
2003-10-02 06:00,12.9,4.1,4.7,161,2942
2003-10-02 07:00,13.1,3.2,5.1,235,2850
2003-10-02 11:00,12.2,0.9,1.5,245,2909
2003-10-02 12:00,12.8,2.1,2.8,133,2655
2003-10-02 13:00,12.8,2.3,2.9,169,2873
2003-10-02 14:00,12.9,3.5,3.8,153,2876
2003-10-02 15:00,13.3,4.8,5.4,152,2894
2003-10-02 16:00,13.3,5.5,6.3,169,2932
2003-10-02 17:00,11.6,7.0,7.9,248,2813
2003-10-02 18:00,11.0,4.9,6.3,254,1914
2003-10-02 19:00,11.6,2.7,3.9,140,2927
2003-10-02 20:00,11.9,3.2,3.9,128,2905
2003-10-02 21:00,12.3,3.1,3.8,173,2696
2003-10-02 22:00,11.7,3.6,4.5,202,2239
2003-10-02 23:00,11.8,3.0,3.8,180,2945
2003-10-03 00:00,11.9,2.2,2.9,214,2910
2003-10-03 01:00,12.1,2.3,3.0,222,2912
2003-10-03 02:00,10.1,11.1,13.4,289,2926
2003-10-03 03:00,9.7,9.2,11.4,298,2906
2003-10-03 04:00,9.0,8.3,10.1,295,2920
2003-10-03 05:00,8.8,9.1,11.6,269,2946
2003-10-03 06:00,8.2,9.9,11.9,289,2927
2003-10-03 07:00,8.4,9.8,12.0,281,2944
2003-10-03 08:00,8.2,10.9,13.7,285,2901
2003-10-03 09:00,8.2,11.1,12.6,280,2933
2003-10-03 10:00,8.1,10.9,13.1,281,2931
2003-10-03 11:00,8.1,12.0,14.3,295,2915
2003-10-03 12:00,7.8,10.5,12.7,294,2918
2003-10-03 13:00,7.9,8.8,10.3,298,2825
2003-10-03 14:00,7.9,8.0,10.5,286,2390
2003-10-03 15:00,8.4,6.6,8.1,287,2807
2003-10-03 16:00,8.8,6.3,7.9,284,2813
2003-10-03 17:00,8.9,6.5,7.9,246,2369
2003-10-03 18:00,9.3,7.0,8.7,233,2852
2003-10-03 19:00,9.4,7.7,9.0,228,2807
2003-10-03 20:00,9.7,8.0,9.9,234,2533
2003-10-03 21:00,9.7,7.9,9.5,226,2801
2003-10-03 22:00,9.9,6.9,7.9,229,2748
2003-10-03 23:00,9.9,6.7,7.9,227,2950
2003-10-04 00:00,10.0,6.2,7.3,220,2957
2003-10-04 01:00,10.1,5.3,6.7,213,2953
2003-10-04 02:00,10.3,5.4,6.7,209,2954
2003-10-04 03:00,10.6,6.5,8.1,201,2953
2003-10-04 04:00,10.9,6.2,7.2,207,2954
2003-10-04 05:00,11.3,5.7,6.5,201,2954
2003-10-04 06:00,11.5,6.1,7.4,202,2957
2003-10-04 07:00,11.6,6.4,7.6,196,2955
2003-10-04 08:00,11.7,5.7,6.9,205,2951
2003-10-04 09:00,11.7,6.5,7.5,193,2953
2003-10-04 10:00,11.8,5.6,6.7,192,2947
2003-10-04 11:00,11.8,7.4,8.9,176,2711
2003-10-04 12:00,11.8,8.4,10.3,176,2016
2003-10-04 13:00,11.8,8.4,10.2,168,2755
2003-10-04 14:00,11.9,8.5,10.9,169,2879
2003-10-04 15:00,12.2,8.7,10.0,169,2803
2003-10-04 16:00,12.1,10.1,12.5,153,2876
2003-10-04 17:00,12.3,10.0,11.8,158,2883
2003-10-04 18:00,12.4,10.1,12.6,151,2868
2003-10-04 20:00,12.4,11.2,13.7,143,2509
2003-10-04 21:00,13.2,11.9,14.4,148,2725
2003-10-04 22:00,13.0,12.1,14.2,150,1588
2003-10-04 23:00,13.0,11.4,14.5,150,1389
2003-10-05 00:00,13.2,12.6,15.5,164, 781
2003-10-05 01:00,13.1,9.4,12.0,202, 412
2003-10-05 02:00,13.2,9.2,11.6,212,2259
2003-10-05 03:00,13.3,7.5,9.3,210,2688
2003-10-05 04:00,12.8,7.5,8.9,216,2451
2003-10-05 05:00,12.4,5.6,6.5,215,2644
2003-10-05 06:00,12.4,6.6,8.6,228,2850
2003-10-05 07:00,12.2,6.3,7.9,233,2894
2003-10-05 08:00,11.9,7.5,8.7,251,2933
2003-10-05 09:00,11.7,6.4,8.0,249,2932
2003-10-05 10:00,11.3,5.4,6.6,263,2949
2003-10-05 11:00,11.0,5.3,6.3,269,2943
2003-10-05 12:00,10.6,5.9,7.2,269,2921
2003-10-05 13:00,10.4,5.4,6.9,255,2919
2003-10-05 14:00,10.2,5.9,7.2,264,2909
2003-10-05 15:00,10.1,5.6,7.0,250,2907
2003-10-05 16:00,10.1,5.7,7.2,253,2892
2003-10-05 17:00,10.3,7.2,8.7,244,2546
2003-10-05 18:00,10.3,7.3,8.7,248,2916
2003-10-05 19:00,10.7,8.0,9.3,248,2771
2003-10-05 20:00,11.0,7.6,8.7,244,2583
2003-10-05 21:00,11.3,8.7,10.6,238,2542
2003-10-05 22:00,11.7,9.9,11.4,249,2626
2003-10-05 23:00,11.9,8.6,10.9,257,2950
2003-10-06 00:00,11.9,7.4,9.1,263,2947
2003-10-06 01:00,11.8,5.9,7.2,258,2950
2003-10-06 02:00,10.8,3.6,4.7,332,2953
2003-10-06 03:00,10.7,5.4,6.5,313,2959
2003-10-06 04:00,10.4,3.9,4.8,312,2957
2003-10-06 05:00,10.4,5.0,6.4,302,2957
2003-10-06 06:00,10.4,6.1,7.5,300,2957
2003-10-06 07:00,10.2,4.6,5.7,285,2957
2003-10-06 08:00,10.3,4.5,6.1,295,2956
2003-10-06 09:00,10.3,4.0,5.1,289,2957
2003-10-06 10:00,10.3,4.3,5.2,293,2957
2003-10-06 11:00,9.9,4.6,5.8,268,2949
2003-10-06 12:00,9.8,5.6,6.7,277,2951
2003-10-06 13:00,10.0,5.0,6.1,285,2806
2003-10-06 14:00,9.9,4.9,5.6,314,2936
2003-10-06 15:00,10.2,4.4,5.4,306,2879
2003-10-06 16:00,10.4,3.3,4.3,307,2956
2003-10-06 17:00,10.6,2.1,3.2,297,2945
2003-10-06 18:00,11.1,4.4,6.0,281,2954
2003-10-06 19:00,11.7,6.3,7.5,285,2954
2003-10-06 20:00,11.5,5.8,6.7,313,1584
2003-10-06 21:00,11.4,6.2,7.5,318,1289
2003-10-06 22:00,11.2,4.0,5.1,322,2668
2003-10-06 23:00,11.0,5.8,6.8,335,2957
2003-10-07 00:00,10.6,5.7,7.3,343,2956
2003-10-07 01:00,10.2,4.7,5.8,338,2952
2003-10-07 02:00,9.6,6.5,7.6,354,2955
2003-10-07 03:00,9.4,5.7,7.0,339,2951
2003-10-07 04:00,9.1,4.9,6.5,313,2948
2003-10-07 05:00,9.0,6.3,7.7,313,2954
2003-10-07 06:00,8.6,6.3,7.5,311,2951
2003-10-07 07:00,8.5,5.3,6.6,304,2954
2003-10-07 08:00,8.3,5.6,6.7,302,2947
2003-10-07 09:00,8.3,6.2,7.4,308,2939
2003-10-07 10:00,8.1,6.2,7.8,305,2946
2003-10-07 11:00,8.0,6.0,7.3,307,2940
2003-10-07 12:00,8.2,4.6,5.6,298,2783
2003-10-07 13:00,8.4,4.3,5.3,298,2938
2003-10-07 14:00,8.7,3.3,4.5,284,2923
2003-10-07 15:00,9.1,4.6,6.0,254,2928
2003-10-07 16:00,9.6,5.9,6.9,258,2928
2003-10-07 17:00,9.9,6.8,8.6,246,2737
2003-10-07 18:00,10.3,7.8,9.3,244,2861
2003-10-07 19:00,10.5,8.6,9.7,239,2924
2003-10-07 20:00,10.7,8.2,9.8,238,2763
2003-10-07 21:00,10.7,8.0,9.7,233,2158
2003-10-07 22:00,10.7,8.2,11.0,230,2937
2003-10-07 23:00,10.9,8.1,9.8,231,2953
2003-10-08 00:00,11.0,8.0,9.8,228,2949
2003-10-08 01:00,11.2,7.5,8.9,223,2950
2003-10-08 02:00,11.3,7.2,8.6,220,2942
2003-10-08 03:00,11.6,7.1,8.9,221,2932
2003-10-08 04:00,11.8,6.3,7.7,217,2933
2003-10-08 05:00,11.9,6.0,7.8,220,2925
2003-10-08 06:00,11.9,6.0,7.2,222,2907
2003-10-08 07:00,11.9,5.9,7.0,220,2890
2003-10-08 08:00,12.0,5.9,7.1,235,2892
2003-10-08 09:00,11.9,6.7,7.6,246,2886
2003-10-08 10:00,11.8,4.7,5.5,243,2894
2003-10-08 11:00,11.7,4.5,5.4,240,2885
2003-10-08 12:00,11.8,4.2,5.1,249,2894
2003-10-08 13:00,11.8,4.2,4.9,239,2885
2003-10-08 14:00,11.9,3.5,4.2,225,2809
2003-10-08 15:00,11.8,5.0,5.9,231,2819
2003-10-08 16:00,11.8,5.5,6.3,226,2656
2003-10-08 17:00,11.9,5.3,6.2,220,2834
2003-10-08 18:00,11.9,6.7,8.1,220,2815
2003-10-08 19:00,11.9,6.1,7.0,225,2352
2003-10-08 20:00,12.1,6.1,7.2,219,2462
2003-10-08 21:00,12.3,5.5,7.1,223,2659
2003-10-08 22:00,12.3,5.7,7.4,224,2832
2003-10-08 23:00,12.4,6.6,7.5,224,2707
2003-10-09 00:00,12.4,4.6,5.2,239,2598
2003-10-09 01:00,12.4,3.9,4.8,242,2344
2003-10-09 02:00,12.4,3.9,5.0,233,2418
2003-10-09 03:00,12.6,2.6,3.7,247,2652
2003-10-09 04:00,12.9,3.5,4.7,247,2737
2003-10-09 05:00,12.6,3.5,4.2,253,2700
2003-10-09 06:00,12.7,4.8,5.6,254,2654
2003-10-09 07:00,12.6,4.0,4.9,247,2582
2003-10-09 08:00,12.5,4.2,5.1,273,2694
2003-10-09 10:00,12.8,5.2,5.8,285,2861
2003-10-09 11:00,12.6,1.7,3.4,291,2611
2003-10-09 13:00,12.9,2.9,3.6,334,2824
2003-10-09 14:00,12.9,3.8,4.7, 18,2805
2003-10-09 15:00,13.0,3.4,4.0, 17,2873
2003-10-09 16:00,13.1,4.9,5.4, 58,2897
2003-10-09 17:00,13.0,3.9,4.5, 84,2906
2003-10-09 18:00,12.9,4.4,5.1, 92,2942
2003-10-09 19:00,12.6,4.3,4.9,113,2928
2003-10-09 20:00,12.6,3.5,4.1,122,2901
2003-10-09 21:00,12.7,2.5,2.9,128,2915
2003-10-09 22:00,12.3,1.9,2.3,134,2909
2003-10-09 23:00,12.1,1.2,1.6,126,2915
2003-10-10 00:00,11.8,1.5,2.1, 37,2883
2003-10-10 01:00,11.9,2.4,2.8, 73,2924
2003-10-10 02:00,11.8,1.0,1.7, 62,2933
2003-10-10 03:00,11.5,1.3,1.7, 41,2930
2003-10-10 04:00,11.6,3.2,3.7, 34,2938
2003-10-10 05:00,11.6,3.4,4.0, 44,2916
2003-10-10 06:00,11.6,4.0,4.9, 46,2921
2003-10-10 07:00,11.6,3.0,4.0, 59,2944
2003-10-10 08:00,11.5,1.7,2.4, 36,2945
2003-10-10 09:00,11.4,1.9,2.4, 51,2949
2003-10-10 10:00,11.4,2.0,2.4, 55,2949
2003-10-10 11:00,11.5,2.3,2.8, 42,2933
2003-10-10 12:00,11.6,2.5,3.1, 31,2913
2003-10-10 13:00,11.5,3.0,3.5, 34,2789
2003-10-10 14:00,11.5,3.3,3.8, 49,2928
2003-10-10 15:00,11.6,3.4,3.9, 68,2735
2003-10-10 17:00,11.0,2.9,3.8,114,1314
2003-10-10 18:00,11.1,2.1,3.3,108,1683
2003-10-10 19:00,11.5,2.6,3.2,127,2168
2003-10-10 20:00,11.9,2.8,3.9,151,2320
2003-10-10 21:00,12.3,0.8,2.2,123,2239
2003-10-10 22:00,11.6,0.9,1.1,354,2152
2003-10-10 23:00,11.3,0.4,0.7,221,2176
2003-10-11 00:00,11.2,1.0,1.4,199,2154
2003-10-11 01:00,11.2,0.5,1.1,197,2212
2003-10-11 02:00,11.2,0.5,0.8,286,2101
2003-10-11 03:00,11.3,1.3,1.6,313,2068
2003-10-11 04:00,11.4,1.8,2.2,332,2056
2003-10-11 05:00,11.4,2.0,2.5,341,2143
2003-10-11 06:00,11.3,1.7,2.4,345,2233
2003-10-11 07:00,11.1,0.0,0.7,316,2128
2003-10-11 08:00,11.1,2.1,2.8, 14,2235
2003-10-11 09:00,10.1,2.3,2.7, 45, 361
2003-10-11 10:00,9.7,0.3,1.4, 96, 492
2003-10-11 11:00,10.3,1.0,1.3,112,1487
2003-10-11 12:00,11.4,0.7,0.9,101,2528
2003-10-11 13:00,11.6,0.7,1.1, 96,2558
2003-10-11 14:00,12.9,0.2,0.5,140,2745
2003-10-11 15:00,12.8,0.8,1.1,200,2587
2003-10-11 16:00,13.2,0.6,1.0,291,2772
2003-10-11 17:00,13.0,1.0,1.4,273,2768
2003-10-11 18:00,13.7,2.0,2.7,220,2425
2003-10-11 19:00,13.1,1.6,2.0,237,2548
2003-10-11 20:00,13.6,1.8,2.2,219,2382
2003-10-11 21:00,12.9,1.8,2.2,245,2428
2003-10-11 22:00,12.2,1.9,2.2,238,2112
2003-10-11 23:00,12.2,1.5,1.9,272,2276
2003-10-12 00:00,12.1,1.5,1.9,310,2179
2003-10-12 01:00,12.4,1.9,2.4,322,2709
2003-10-12 02:00,12.0,0.8,1.3,261,2351
2003-10-12 03:00,12.0,2.9,3.8,197,2401
2003-10-12 04:00,12.0,0.4,1.6,260,2477
2003-10-12 05:00,11.9,1.5,1.8,322,2501
2003-10-12 06:00,11.6,0.1,0.8,150,2414
2003-10-12 07:00,11.5,0.1,0.4,145,2390
2003-10-12 08:00,11.6,0.5,0.7, 41,2509
2003-10-12 09:00,11.5,0.5,0.7, 77,2519
2003-10-12 10:00,11.5,0.9,1.1, 42,2524
2003-10-12 11:00,11.6,1.7,2.0, 32,2282
2003-10-12 12:00,12.4,2.1,2.5, 41,1374
2003-10-12 13:00,12.7,2.7,3.1, 39,1776
2003-10-12 14:00,12.1,2.8,3.3, 66,2519
2003-10-12 15:00,12.0,3.1,3.5, 66,2403
2003-10-12 16:00,12.0,3.5,3.9, 59,2425
2003-10-12 17:00,12.2,3.1,3.6, 58,2470
2003-10-12 18:00,12.4,3.9,4.3, 46,2461
2003-10-12 19:00,12.4,3.9,4.5, 61,2611
2003-10-12 20:00,12.4,5.9,6.5, 69,2742
2003-10-12 21:00,12.3,5.2,5.8, 72,2749
2003-10-12 22:00,12.4,4.9,5.6, 66,2380
2003-10-12 23:00,12.5,5.5,6.9, 77,1101
2003-10-13 00:00,13.1,6.1,7.6, 94,2006
2003-10-13 01:00,13.2,5.9,6.7,103,1899
2003-10-13 02:00,13.5,5.8,6.6,113,1826
2003-10-13 03:00,13.8,6.3,7.3,113,1790
2003-10-13 04:00,13.9,5.7,6.5,123,1930
2003-10-13 05:00,13.9,4.0,5.4,116,1902
2003-10-13 06:00,13.6,1.5,2.7,146,1633
2003-10-13 07:00,13.2,4.1,4.9,356,2510
2003-10-13 08:00,13.0,5.0,5.9,  1,2539
2003-10-13 09:00,13.2,5.5,6.4,340,2829
2003-10-13 10:00,13.2,6.5,7.4,348,2950
2003-10-13 11:00,13.1,4.2,5.5,337,2939
2003-10-13 12:00,13.5,5.5,6.9,328,2600
2003-10-13 13:00,13.7,7.3,8.7,324,2703
2003-10-13 14:00,13.5,7.1,8.5,317,2879
2003-10-13 15:00,13.6,7.4,8.9,322,2820
2003-10-13 16:00,14.2,6.9,8.2,327,2795
2003-10-13 17:00,14.4,5.4,6.8,324,2928
2003-10-13 18:00,14.8,6.3,7.2,316,2944
2003-10-13 19:00,15.1,4.8,6.6,326,2954
2003-10-13 20:00,14.9,4.9,5.7,319,2951
2003-10-13 21:00,15.3,2.1,3.3,313,2956
2003-10-13 22:00,14.0,2.2,3.0,328,2956
2003-10-13 23:00,13.6,1.9,2.3,274,2954
2003-10-14 00:00,13.4,5.6,6.5,312,2957
2003-10-14 01:00,13.9,6.5,7.1,325,2955
2003-10-14 02:00,13.5,8.2,9.6,328,2956
2003-10-14 03:00,13.2,5.7,6.9,330,2949
2003-10-14 04:00,12.6,4.5,5.3,312,2950
2003-10-14 05:00,12.2,4.0,4.5,298,2954
2003-10-14 06:00,12.0,4.3,5.0,304,2956
2003-10-14 07:00,11.8,4.5,5.3,305,2951
2003-10-14 08:00,11.7,4.1,4.8,304,2953
2003-10-14 09:00,11.6,3.9,4.5,306,2947
2003-10-14 10:00,11.4,2.6,3.7,326,2951
2003-10-14 11:00,11.3,2.8,3.5,323, 484
2003-10-14 12:00,11.9,3.0,3.6,333,2384
2003-10-14 13:00,11.9,2.1,2.7,335,2898
2003-10-14 14:00,12.1,0.5,1.4,329,2918
2003-10-14 15:00,13.2,1.3,1.8, 35,2931
2003-10-14 16:00,13.7,0.3,1.1,128,2954
2003-10-14 17:00,12.8,1.0,1.3,167,2957
2003-10-14 18:00,12.6,1.5,1.8,181,2950
2003-10-14 19:00,13.6,1.2,1.5,212,2947
2003-10-14 20:00,12.3,2.0,2.4,187,2920
2003-10-14 21:00,12.2,2.3,2.9,169,2948
2003-10-14 22:00,12.2,3.2,3.9,162,2953
2003-10-14 23:00,12.2,3.7,4.3,155,2957
2003-10-15 00:00,12.2,3.8,4.4,132,2953
2003-10-15 01:00,12.2,4.3,5.2,138,2956
2003-10-15 02:00,12.2,5.0,6.0,132,2953
2003-10-15 03:00,12.3,5.4,6.0,136,2953
2003-10-15 04:00,12.3,5.9,6.9,137,2954
2003-10-15 05:00,12.4,7.3,8.4,139,2954
2003-10-15 06:00,12.4,8.9,10.4,134,2948
2003-10-15 07:00,12.4,10.2,12.5,134,2924
2003-10-15 08:00,12.3,10.1,12.2,118,2867
2003-10-15 09:00,12.6,11.1,13.3,111,2817
2003-10-15 10:00,13.0,11.0,13.6,116,2640
2003-10-15 11:00,13.1,11.7,14.0,118,2610
2003-10-15 12:00,13.8,13.9,16.0,120,2421
2003-10-15 13:00,13.5,15.6,18.5,117, 713
2003-10-15 14:00,13.6,16.0,20.4,125, 487
2003-10-15 15:00,13.9,16.6,20.6,134, 702
2003-10-15 16:00,14.2,15.9,19.1,144, 615
2003-10-15 17:00,13.8,9.0,13.2,177,2472
2003-10-15 18:00,13.7,9.3,11.0,197,2446
2003-10-15 19:00,13.8,10.1,12.8,191,2254
2003-10-15 20:00,13.7,10.1,12.7,197,2426
2003-10-15 21:00,13.5,11.4,13.8,211,2557
2003-10-15 22:00,13.2,11.0,14.2,212,2659
2003-10-15 23:00,13.4,12.6,16.2,217,2619
2003-10-16 00:00,13.2,12.9,17.1,223,2635
2003-10-16 01:00,12.6,13.6,16.4,224,2540
2003-10-16 02:00,12.3,13.0,16.9,246,2676
2003-10-16 03:00,12.2,13.1,15.8,247,2700
2003-10-16 04:00,11.8,14.4,17.0,259,2618
2003-10-16 05:00,11.9,13.1,16.8,257,2847
2003-10-16 06:00,11.6,13.3,16.2,250,2791
2003-10-16 07:00,11.4,13.1,16.7,257,2837
2003-10-16 08:00,11.2,10.6,13.2,268,2934
2003-10-16 09:00,10.9,11.8,16.8,277,2930
2003-10-16 10:00,10.4,12.1,15.7,259,2929
2003-10-16 11:00,10.1,12.7,15.5,259,2915
2003-10-16 12:00,9.8,12.2,14.6,267,2897
2003-10-16 13:00,9.7,11.4,13.8,275,2943
2003-10-16 14:00,9.8,10.8,13.7,270,2903
2003-10-16 15:00,10.0,11.4,14.7,275,2930
2003-10-16 16:00,10.4,9.8,11.4,260,2780
2003-10-16 17:00,10.3,10.4,12.2,250,2796
2003-10-16 18:00,10.6,10.7,12.9,249,2922
2003-10-16 19:00,10.9,10.5,12.3,249,2929
2003-10-16 20:00,11.2,9.7,12.1,239,2874
2003-10-16 21:00,11.1,10.5,15.1,237,2694
2003-10-16 22:00,10.9,3.7,7.2,226,2934
2003-10-16 23:00,12.2,10.8,13.0,263,2941
2003-10-17 00:00,10.6,7.3,10.0,293,2944
2003-10-17 01:00,10.7,8.2,10.7,298,2956
2003-10-17 02:00,10.0,7.9,9.7,308,2939
2003-10-17 03:00,9.8,7.7,9.4,304,2959
2003-10-17 04:00,9.6,7.0,8.1,311,2955
2003-10-17 05:00,9.3,4.3,5.7,312,2957
2003-10-17 06:00,9.1,7.6,9.3,315,2957
2003-10-17 07:00,8.9,3.9,5.4,302,2956
2003-10-17 08:00,9.1,5.0,6.3,287,2958
2003-10-17 09:00,9.1,5.7,7.4,300,2956
2003-10-17 10:00,9.2,6.1,7.4,278,2956
2003-10-17 11:00,9.1,6.8,8.3,282,2952
2003-10-17 12:00,9.3,7.2,8.9,293,2954
2003-10-17 13:00,9.1,6.8,8.6,295,2683
2003-10-17 14:00,8.8,6.9,8.6,296,2906
2003-10-17 15:00,9.2,6.4,7.8,288,2810
2003-10-17 16:00,9.6,5.8,8.4,286,2948
2003-10-17 17:00,10.1,7.3,8.7,274,2664
2003-10-17 18:00,10.0,6.7,8.4,253,2926
2003-10-17 19:00,10.1,7.3,8.9,246,2942
2003-10-17 20:00,10.1,8.2,9.4,239,2802
2003-10-17 21:00,10.2,7.5,9.4,236,2945
2003-10-17 22:00,10.4,7.2,8.5,239,2957
2003-10-17 23:00,10.7,5.7,7.4,244,2957
2003-10-18 00:00,10.8,6.6,7.6,240,2957
2003-10-18 01:00,10.8,5.9,6.9,229,2958
2003-10-18 02:00,9.8,7.5,9.5,203,2957
2003-10-18 03:00,10.8,4.9,6.0,270,2959
2003-10-18 04:00,10.4,0.9,2.6,346,2958
2003-10-18 05:00,10.2,1.9,2.9, 43,2958
2003-10-18 06:00,10.1,3.7,4.4, 38,2955
2003-10-18 07:00,10.0,1.5,2.7, 17,2958
2003-10-18 08:00,9.8,2.2,3.3, 23,2958
2003-10-18 09:00,9.4,4.7,6.7,220,2913
2003-10-18 10:00,9.0,3.0,4.2,236,2959
2003-10-18 11:00,8.5,2.1,3.1,193,2648
2003-10-18 12:00,8.2,2.2,3.1,183,2707
2003-10-18 13:00,8.2,1.2,2.0,169,2876
2003-10-18 14:00,8.1,0.0,0.4,105,2754
2003-10-18 15:00,7.7,5.6,7.0, 14,2751
2003-10-18 16:00,6.9,5.9,7.4, 14,2814
2003-10-18 17:00,7.4,5.9,7.1, 19,2926
2003-10-18 18:00,7.8,4.5,6.0, 20,2945
2003-10-18 19:00,8.1,3.6,4.6, 36,2934
2003-10-18 20:00,8.2,3.4,4.9, 35,2945
2003-10-18 21:00,8.4,3.9,5.1, 37,2948
2003-10-18 22:00,8.3,4.4,5.3, 88,2957
2003-10-18 23:00,8.2,3.7,5.1, 72,2956
2003-10-19 00:00,8.4,3.3,4.1, 51,2957
2003-10-19 01:00,8.4,3.6,4.3, 30,2957
2003-10-19 02:00,8.4,2.7,3.8,  4,2956
2003-10-19 03:00,8.6,3.5,4.6,327,2951
2003-10-19 04:00,8.6,3.3,4.3,305,2956
2003-10-19 05:00,8.6,4.4,5.3,306,2957
2003-10-19 06:00,8.6,4.7,5.8,336,2954
2003-10-19 07:00,7.7,5.5,7.2, 27,2948
2003-10-19 08:00,7.3,5.6,7.1, 34,2951
2003-10-19 09:00,6.9,6.8,8.1, 26,2955
2003-10-19 10:00,6.7,7.6,8.7, 25,2956
2003-10-19 11:00,6.6,7.7,9.0, 22,2927
2003-10-19 12:00,6.1,7.1,8.6, 23,2953
2003-10-19 13:00,6.3,3.3,6.0, 15,2942
2003-10-19 14:00,6.3,3.9,5.7,326,2942
2003-10-19 15:00,6.4,3.1,4.2,356,2942
2003-10-19 16:00,6.4,5.3,6.5,  1,2930
2003-10-19 17:00,6.5,3.4,4.8,346,2947
2003-10-19 18:00,7.3,4.2,5.8,357,2949
2003-10-19 19:00,7.7,3.0,4.0,337,2819
2003-10-19 20:00,8.0,2.5,3.3,333,2954
2003-10-19 21:00,8.6,3.7,5.2,353,2955
2003-10-19 22:00,8.6,4.7,6.0,341,2956
2003-10-19 23:00,8.5,5.8,6.9,334,2958
2003-10-20 00:00,8.4,5.1,6.0,340,2957
2003-10-20 01:00,8.0,5.2,7.0,334,2957
2003-10-20 02:00,7.7,6.4,7.4,329,2953
2003-10-20 03:00,7.5,5.8,7.3,342,2959
2003-10-20 04:00,7.1,6.0,7.2,328,2956
2003-10-20 05:00,6.7,7.8,9.2,327,2957
2003-10-20 06:00,6.1,9.5,11.2,343,2951
2003-10-20 07:00,6.1,9.5,11.2,322,2954
2003-10-20 08:00,5.8,7.4,9.1,312,2953
2003-10-20 09:00,5.4,7.7,9.1,327,2957
2003-10-20 10:00,5.0,8.8,11.7,314,2953
2003-10-20 11:00,4.8,9.2,11.0,320,2941
2003-10-20 12:00,4.7,6.8,8.5,323,2355
2003-10-20 13:00,5.0,5.1,6.9,313,2808
2003-10-20 14:00,5.9,5.4,7.6,300,2627
2003-10-20 15:00,6.4,6.3,8.0,287,2718
2003-10-20 16:00,6.8,7.7,10.2,264,2913
2003-10-20 17:00,7.5,7.6,9.7,263,2691
2003-10-20 18:00,7.8,7.8,9.6,259,2328
2003-10-20 19:00,8.1,8.7,13.2,246,2875
2003-10-20 20:00,8.1,9.7,11.7,238,2889
2003-10-20 21:00,8.1,8.7,10.2,242,2221
2003-10-20 22:00,8.5,8.7,10.3,250,2954
2003-10-20 23:00,8.9,8.8,9.9,246,2950
2003-10-21 00:00,9.3,8.0,9.8,242,2956
2003-10-21 01:00,9.7,7.8,9.1,238,2956
2003-10-21 02:00,9.9,7.6,9.6,238,2957
2003-10-21 03:00,10.1,6.8,7.9,241,2956
2003-10-21 04:00,10.2,6.3,8.0,227,2954
2003-10-21 05:00,10.3,5.3,6.6,209,2957
2003-10-21 06:00,10.1,4.8,7.2,223,2869
2003-10-21 07:00,10.3,4.2,5.1,220,2954
2003-10-21 08:00,10.5,4.6,5.5,211,2957
2003-10-21 09:00,10.5,4.5,5.4,166,2956
2003-10-21 10:00,10.6,7.3,8.6,161,2948
2003-10-21 11:00,10.5,9.7,11.3,157,2730
2003-10-21 12:00,11.2,10.7,12.9,163,2652
2003-10-21 13:00,11.9,11.8,14.9,178,1616